Location: Góry Miechowskie
(50.3599°N, 20.1803°E)
Time: 02:10:22
(UTC+00:00)

Resurs 1-4 Rocket - Pass Details

Date: 23 September 2024
Orbit: 798 x 813 km, 98.8° (Epoch: 14 October)

Event Time Altitude Azimuth Distance (km) Brightness Sun altitude
Rises 02:33:22 0° 5° (N) 3,320 5.7 -18.5°
Reaches altitude 10° 02:36:20 10° 348° (NNW) 2,384 4.7 -18.1°
Maximum altitude 02:39:53 19° 305° (NW) 1,839 3.7 -17.6°
Enters shadow 02:40:41 18° 294° (WNW) 1,869 3.6 -17.5°
